Milford, UT

6:10 PM MDT on March 30, 2017 (GMT -0600)
Milford Municipal

Weather History for KMLF - February, 2014

Change the Weather History Date:

Friday, February 21, 2014

  Actual Average Record
Temperature  
Mean Temperature 38 °F -  
Max Temperature 55 °F 43 °F 61 °F (2017)
Min Temperature 21 °F 22 °F 6 °F (2006)
Degree Days  
Heating Degree Days 27    
Moisture  
Dew Point 12 °F    
Average Humidity 35    
Maximum Humidity 60    
Minimum Humidity 10    
Precipitation  
Precipitation 0.00 in - - ()
Sea Level Pressure  
Sea Level Pressure 30.07 in    
Wind  
Wind Speed 7 mph (NNW)    
Max Wind Speed 12 mph    
Max Gust Speed -    
Visibility 10 miles    
Events      
Averages and records for this station are not official NWS values.
T = Trace of Precipitation, MM = Missing Value Source: NWS Daily Summary

Daily Weather History Graph

Daily Weather History Graph

Search for Another Location

Airport or City:

Trip Planner

Search our weather history database for the weather conditions in past years. The results will help you decide how hot, cold, wet, or windy it might be!

Date:

Astronomy

Feb. 21, 2014 Rise Set
Actual Time 7:14 AM MST 6:16 PM MST
Civil Twilight 6:48 AM MST 6:43 PM MST
Nautical Twilight 6:17 AM MST 7:14 PM MST
Astronomical Twilight 5:46 AM MST 7:45 PM MST
Moon 12:09 AM MST (2/21) 10:47 AM MST (2/21)
Length of Visible Light 11h 55m
Length of Day
11h 01m
Waning Gibbous, 60% of the Moon is Illuminated
Feb 21
Waning Gibbous
Feb 22
Last Quarter
Mar 1
New
Mar 8
First Quarter
Mar 16
Full

Hourly Weather History & Observations

Time (MST) Temp. Windchill Dew Point Humidity Pressure Visibility Wind Dir Wind Speed Gust Speed Precip Events Conditions
12:52 AM 25.0 °F 15.5 °F 8.1 °F 49% 30.14 in 10.0 mi SSW 9.2 mph - N/A   Clear
1:52 AM 28.0 °F 19.3 °F 7.0 °F 41% 30.12 in 10.0 mi SSW 9.2 mph - N/A   Overcast
2:52 AM 28.0 °F 19.3 °F 8.1 °F 43% 30.11 in 10.0 mi South 9.2 mph - N/A   Overcast
3:52 AM 28.0 °F 19.3 °F 8.1 °F 43% 30.11 in 10.0 mi SSW 9.2 mph - N/A   Overcast
4:52 AM 25.0 °F 18.1 °F 9.0 °F 51% 30.12 in 10.0 mi SSW 5.8 mph - N/A   Clear
5:52 AM 23.0 °F - 9.0 °F 55% 30.14 in 10.0 mi Calm Calm - N/A   Clear
6:52 AM 24.1 °F - 10.0 °F 55% 30.16 in 10.0 mi Calm Calm - N/A   Clear
7:52 AM 25.0 °F 19.3 °F 10.0 °F 53% 30.18 in 10.0 mi West 4.6 mph - N/A   Clear
8:52 AM 33.1 °F 28.7 °F 12.9 °F 43% 30.18 in 10.0 mi NE 4.6 mph - N/A   Clear
9:52 AM 39.0 °F 34.0 °F 12.0 °F 33% 30.16 in 10.0 mi North 6.9 mph - N/A   Clear
10:52 AM 43.0 °F 40.3 °F 10.0 °F 26% 30.14 in 10.0 mi NNE 4.6 mph - N/A   Clear
11:52 AM 48.0 °F - 10.9 °F 22% 30.11 in 10.0 mi NE 3.5 mph - N/A   Clear
12:52 PM 50.0 °F - 12.0 °F 22% 30.07 in 10.0 mi Variable 5.8 mph - N/A   Clear
1:52 PM 53.1 °F - 12.9 °F 20% 30.02 in 10.0 mi NNW 8.1 mph - N/A   Clear
2:52 PM 54.0 °F - 12.9 °F 20% 29.99 in 10.0 mi North 5.8 mph - N/A   Clear
3:52 PM 54.0 °F - 14.0 °F 21% 29.98 in 10.0 mi Variable 6.9 mph - N/A   Clear
4:52 PM 51.1 °F - 15.1 °F 24% 29.98 in 10.0 mi NNE 11.5 mph - N/A   Clear
5:52 PM 48.9 °F - 16.0 °F 27% 29.99 in 10.0 mi NE 5.8 mph - N/A   Clear
6:52 PM 42.1 °F 40.2 °F 16.0 °F 35% 30.00 in 10.0 mi North 3.5 mph - N/A   Mostly Cloudy
7:52 PM 37.9 °F 33.5 °F 15.1 °F 39% 30.01 in 10.0 mi North 5.8 mph - N/A   Clear
8:52 PM 34.0 °F 31.0 °F 14.0 °F 44% 30.00 in 10.0 mi Variable 3.5 mph - N/A   Clear
9:52 PM 33.1 °F 30.0 °F 15.1 °F 48% 29.99 in 10.0 mi SW 3.5 mph - N/A   Clear
10:52 PM 30.9 °F 25.2 °F 15.1 °F 52% 29.99 in 10.0 mi SW 5.8 mph - N/A   Clear
11:52 PM 26.1 °F - 14.0 °F 60% 29.99 in 10.0 mi Calm Calm - N/A   Scattered Clouds